Weather History for Westminster, MD

Change the Weather History Date:

Saturday, March 16, 2013

  Actual Average (KTHV) Record (KTHV)
Temperature  
Mean Temperature 40 °F -  
Max Temperature 46 °F 0 °F 68 °F (2002)
Min Temperature 33 °F - 21 °F (1998)
Degree Days  
Heating Degree Days 26    
Moisture  
Dew Point 33 °F    
Average Humidity 79    
Maximum Humidity 93    
Minimum Humidity 53    
Precipitation  
Precipitation 0.02 in - - ()
Sea Level Pressure  
Sea Level Pressure 29.78 in    
Wind  
Wind Speed 2 mph (ENE)    
Max Wind Speed 13 mph    
Max Gust Speed -    
Visibility 8 miles    
Events Rain    
Averages and records for this station are not official NWS values.
T = Trace of Precipitation, MM = Missing Value Source: NWS Daily Summary

Daily Weather History Graph

Daily Weather History Graph

Search for Another Location

Airport:

Trip Planner

Search our weather history database for the weather conditions in past years. The results will help you decide how hot, cold, wet, or windy it might be!

Date:

Astronomy

Mar. 16, 2013 Rise Set
Actual Time 7:17 AM EDT 7:16 PM EDT
Civil Twilight 6:50 AM EDT 7:43 PM EDT
Nautical Twilight 6:19 AM EDT 8:14 PM EDT
Astronomical Twilight 5:47 AM EDT 8:46 PM EDT
Moon 9:46 AM EDT (3/16) No Moon Set
Length of Visible Light 12h 52m
Length of Day
11h 58m
Waxing Crescent, 23% of the Moon is Illuminated
Mar 16
Waxing Crescent
Mar 19
First Quarter
Mar 27
Full
Apr 3
Last Quarter
Apr 10
New

Hourly Weather History & Observations

Time (EDT) Temp. Windchill Dew Point Humidity Pressure Visibility Wind Dir Wind Speed Gust Speed Precip Events Conditions
12:10 AM 46.4 °F - 30.2 °F 53% 29.79 in 10.0 mi Calm Calm - N/A   Scattered Clouds
12:30 AM 46.4 °F - 30.2 °F 53% 29.79 in 10.0 mi Calm Calm - N/A   Clear
12:50 AM 44.6 °F - 30.2 °F 57% 29.79 in 10.0 mi Calm Calm - N/A   Clear
1:10 AM 46.4 °F - 30.2 °F 53% 29.79 in 10.0 mi Calm Calm - N/A   Unknown
1:30 AM 42.8 °F - 32.0 °F 66% 29.79 in 10.0 mi Calm Calm - N/A   Scattered Clouds
1:50 AM 44.6 °F - 33.8 °F 66% 29.79 in 10.0 mi Calm Calm - N/A   Scattered Clouds
2:10 AM 42.8 °F - 32.0 °F 66% 29.80 in 10.0 mi Calm Calm - N/A   Unknown
2:30 AM 42.8 °F - 32.0 °F 66% 29.80 in 10.0 mi Calm Calm - N/A   Scattered Clouds
2:50 AM 42.8 °F - 32.0 °F 66% 29.81 in 10.0 mi Calm Calm - N/A   Scattered Clouds
3:10 AM 42.8 °F - 33.8 °F 70% 29.81 in 10.0 mi Calm Calm - N/A   Mostly Cloudy
3:30 AM 42.8 °F - 33.8 °F 70% 29.80 in 10.0 mi Calm Calm - N/A   Overcast
3:50 AM 42.8 °F - 33.8 °F 70% 29.80 in 10.0 mi Calm Calm - N/A   Overcast
4:10 AM 42.8 °F - 33.8 °F 70% 29.80 in 10.0 mi Calm Calm - N/A   Overcast
4:50 AM 42.8 °F - 33.8 °F 70% 29.79 in 10.0 mi Calm Calm - N/A   Overcast
5:10 AM 42.8 °F 40.1 °F 35.6 °F 76% 29.78 in 10.0 mi NE 4.6 mph - N/A   Overcast
5:50 AM 42.8 °F - 33.8 °F 70% 29.79 in 10.0 mi Calm Calm - N/A   Overcast
6:30 AM 41.0 °F - 33.8 °F 76% 29.79 in 10.0 mi Calm Calm - N/A   Overcast
6:50 AM 41.0 °F - 33.8 °F 76% 29.80 in 10.0 mi Calm Calm - N/A   Overcast
7:10 AM 41.0 °F - 33.8 °F 76% 29.79 in 1.0 mi Calm Calm - N/A   Overcast
7:30 AM 41.0 °F - 33.8 °F 76% 29.79 in - Calm Calm - N/A   Overcast
7:50 AM 41.0 °F - 33.8 °F 76% 29.80 in 1.0 mi Calm Calm - N/A   Overcast
8:10 AM 41.0 °F - 33.8 °F 76% 29.80 in 10.0 mi Calm Calm - N/A   Overcast
8:30 AM 41.0 °F - 33.8 °F 76% 29.81 in 10.0 mi Calm Calm - N/A   Light Drizzle
8:50 AM 41.0 °F - 33.8 °F 76% 29.81 in 10.0 mi North - - N/A Rain Light Rain
9:10 AM 41.0 °F - 33.8 °F 76% 29.81 in 10.0 mi North - - N/A Rain Light Rain
9:30 AM 39.2 °F - 35.6 °F 87% 29.80 in 10.0 mi North - - N/A Rain Light Rain
9:50 AM 41.0 °F - 35.6 °F 81% 29.80 in 10.0 mi Calm Calm - N/A   Overcast
10:10 AM 41.0 °F - 35.6 °F 81% 29.79 in 10.0 mi Calm Calm - N/A   Overcast
10:30 AM 41.0 °F - 35.6 °F 81% 29.78 in 10.0 mi Calm Calm - N/A   Overcast
10:50 AM 41.0 °F - 33.8 °F 76% 29.78 in 10.0 mi Calm Calm - N/A Rain Light Rain
11:10 AM 41.0 °F - 32.0 °F 70% 29.78 in 10.0 mi Calm Calm - N/A   Overcast
11:30 AM 41.0 °F 39.0 °F 33.8 °F 76% 29.77 in 10.0 mi East 3.5 mph - N/A   Overcast
11:50 AM 41.0 °F 39.0 °F 33.8 °F 76% 29.77 in 10.0 mi East 3.5 mph - N/A   Overcast
12:10 PM 42.8 °F 38.6 °F 33.8 °F 70% 29.73 in 10.0 mi ESE 6.9 mph - N/A   Overcast
12:30 PM 42.8 °F 38.0 °F 33.8 °F 70% 29.72 in 10.0 mi ESE 8.1 mph - N/A   Overcast
12:50 PM 42.8 °F 40.1 °F 33.8 °F 70% 29.73 in 10.0 mi SE 4.6 mph - N/A   Overcast
1:10 PM 44.6 °F 40.7 °F 33.8 °F 66% 29.71 in 10.0 mi ESE 6.9 mph - N/A   Overcast
1:30 PM 44.6 °F 42.2 °F 33.8 °F 66% 29.71 in 10.0 mi East 4.6 mph - N/A   Overcast
1:50 PM 44.6 °F 42.2 °F 35.6 °F 71% 29.70 in 10.0 mi East 4.6 mph - N/A   Overcast
2:10 PM 44.6 °F 42.2 °F 33.8 °F 66% 29.70 in 10.0 mi East 4.6 mph - N/A   Overcast
2:30 PM 44.6 °F 43.1 °F 33.8 °F 66% 29.70 in 10.0 mi East 3.5 mph - N/A   Drizzle
2:50 PM 42.8 °F 41.1 °F 37.4 °F 81% 29.68 in 4.0 mi East 3.5 mph - 0.01 in Rain Rain
3:10 PM 42.8 °F - 37.4 °F 81% 29.68 in 10.0 mi Calm Calm - 0.01 in   Overcast
3:30 PM 42.8 °F - 37.4 °F 81% 29.71 in 10.0 mi Calm Calm - 0.01 in   Overcast
3:55 PM 37.4 °F 30.8 °F 35.6 °F 93% 29.70 in 4.0 mi NNE 9.2 mph - N/A   Overcast
4:15 PM 37.4 °F 29.8 °F 35.6 °F 93% 29.70 in 4.0 mi NE 11.5 mph - N/A   Mostly Cloudy
4:35 PM 37.4 °F 30.3 °F 33.8 °F 87% 29.70 in 4.0 mi NE 10.4 mph - N/A Rain Rain
4:55 PM 35.6 °F 27.1 °F 33.8 °F 93% 29.70 in 4.0 mi NE 12.7 mph - N/A Rain Light Rain
5:15 PM 35.6 °F 28.6 °F 33.8 °F 93% 29.71 in 4.0 mi NNE 9.2 mph - N/A Rain Light Rain
5:35 PM 35.6 °F 28.0 °F 33.8 °F 93% 29.73 in 5.0 mi NE 10.4 mph - N/A   Overcast
5:55 PM 35.6 °F 28.0 °F 33.8 °F 93% 29.72 in 5.0 mi NE 10.4 mph - N/A Rain Light Rain
6:15 PM 33.8 °F 25.3 °F 32.0 °F 93% 29.74 in 5.0 mi NE 11.5 mph - N/A   Light Drizzle
6:35 PM 33.8 °F 25.3 °F 32.0 °F 93% 29.75 in 4.0 mi NE 11.5 mph - N/A   Light Drizzle
6:55 PM 33.8 °F 27.0 °F 32.0 °F 93% 29.76 in 5.0 mi NE 8.1 mph - N/A   Overcast
7:15 PM 33.8 °F 27.7 °F 32.0 °F 93% 29.77 in 7.0 mi NE 6.9 mph - N/A   Overcast
7:35 PM 33.8 °F 29.6 °F 32.0 °F 93% 29.78 in 7.0 mi NE 4.6 mph - N/A   Overcast
7:55 PM 33.8 °F 27.7 °F 32.0 °F 93% 29.79 in 7.0 mi NE 6.9 mph - N/A   Overcast
8:15 PM 33.8 °F - 32.0 °F 93% 29.81 in 7.0 mi Calm Calm - N/A   Overcast
8:35 PM 33.8 °F 30.8 °F 32.0 °F 93% 29.83 in 7.0 mi North 3.5 mph - N/A   Overcast
8:55 PM 33.8 °F 30.8 °F 32.0 °F 93% 29.84 in 5.0 mi NNE 3.5 mph - N/A   Overcast
9:15 PM 33.8 °F 29.6 °F 32.0 °F 93% 29.86 in 5.0 mi North 4.6 mph - N/A   Overcast
9:35 PM 33.8 °F 30.8 °F 32.0 °F 93% 29.87 in 5.0 mi North 3.5 mph - N/A   Overcast
9:55 PM 33.8 °F - 32.0 °F 93% 29.88 in 4.0 mi Calm Calm - N/A   Overcast
10:15 PM 33.8 °F - 32.0 °F 93% 29.90 in 4.0 mi Calm Calm - N/A   Overcast
10:35 PM 33.8 °F - 32.0 °F 93% 29.90 in 3.0 mi Calm Calm - N/A   Overcast
10:55 PM 33.8 °F - 32.0 °F 93% 29.91 in 2.5 mi Calm Calm - N/A   Overcast
11:15 PM 33.8 °F - 32.0 °F 93% 29.93 in 2.5 mi Calm Calm - N/A   Overcast
11:35 PM 33.8 °F - 32.0 °F 93% 29.92 in 2.5 mi Calm Calm - N/A   Overcast
11:55 PM 33.8 °F - 30.2 °F 87% 29.93 in 2.5 mi Calm Calm - N/A   Overcast